Home   Weather   Klagenfurt   Past weeks

Flag for Austria Past Weather in Klagenfurt, Carinthia, Austria — Yesterday and Last 2 Weeks

Now
19 °F

Passing clouds.


Feels Like: 14 °F
Forecast: 16 / 33 °F
Wind: 3 mph from East

Location: Klagenfurt-Flughafen

Current Time: Jan 23, 2017 at 1:59:10 pm

Latest Report: Jan 23, 2017 at 1:20 pm


Visibility: N/A

Pressure: 30.24 "Hg

Humidity: 86%

Dew Point: 16 °F

Location of KlagenfurtLocation

Past Weather in Klagenfurt — Graph

°F

Klagenfurt Temperature Yesterday

Maximum temperature yesterday: 27 °F (at 3:50 pm)
Minimum temperature yesterday: 5 °F (at 7:20 am)
Average temperature yesterday: 14 °F

High & Low Weather Summary for the Past Weeks

 TemperatureHumidityPressure
High41 °F (Jan 9, 2:50 pm)100% (Jan 13, 2:50 pm)30.63 "Hg (Jan 13, 2:50 pm)
Low5 °F (Jan 21, 8:20 am)36% (Jan 9, 3:50 pm)29.47 "Hg (Jan 13, 7:50 am)
Average19 °F80%30.18 "Hg
* Reported Jan 8 12:20 pm — Jan 23 12:50 pm, Klagenfurt, Weather by CustomWeather, © 2017

Note: Actual official high and low records may vary slightly from our data, if they occured in-between our weather recording intervals... More about our weather records

Advertising

Klagenfurt Weather History for the Previous 24 Hours

Scroll right to see more
 ConditionsComfort  
Time TempWeatherWind HumidityBarometerVisibility
12:50 pm
Mon, Jan 23
19 °FPassing clouds.3 mph86%30.24 "Hg5 mi
12:20 pm18 °FPassing clouds.2 mph86%30.27 "Hg4 mi
11:50 am16 °FPassing clouds.2 mph86%30.27 "Hg4 mi
11:20 am14 °FLight freezing rain. Passing clouds.2 mph92%30.30 "Hg2 mi
10:50 am14 °FScattered clouds.1 mph85%30.30 "Hg0 mi
10:20 am12 °FBroken clouds.3 mph92%30.33 "Hg0 mi
9:50 am12 °FBroken clouds.2 mph92%30.33 "Hg0 mi
9:20 am10 °FCold.2 mph92%30.33 "Hg1 mi
8:50 am10 °FIce fog.No wind92%30.33 "Hg0 mi
8:20 am10 °FIce fog.1 mph85%30.33 "Hg1 mi
7:50 am9 °FSleet. Cloudy.1 mph92%30.33 "Hg1 mi
7:20 am9 °FFrigid.2 mph92%30.33 "Hg3 mi
6:50 am9 °FFrigid.1 mph92%30.36 "Hg2 mi
6:20 am9 °FPartly cloudy.2 mph92%30.36 "Hg1 mi
5:50 am9 °FPassing clouds.3 mph85%30.36 "Hg4 mi
5:20 am9 °FSleet. Overcast.5 mph85%30.36 "Hg4 mi
4:50 am7 °FPartly cloudy.3 mph92%30.36 "HgN/A
4:20 am9 °FSleet. Overcast.3 mph85%30.36 "Hg4 mi
3:50 am7 °FSleet. Overcast.2 mph85%30.39 "HgN/A
3:20 am9 °FPassing clouds.3 mph85%30.39 "Hg6 mi
2:50 am7 °FSleet. Overcast.3 mph92%30.39 "Hg5 mi
2:20 am9 °FSleet. Overcast.2 mph85%30.39 "Hg6 mi
1:50 am10 °FPassing clouds.3 mph85%30.39 "HgN/A
1:20 am10 °FPassing clouds.5 mph85%30.39 "HgN/A
12:50 am10 °FCold.3 mph85%30.39 "Hg6 mi
12:20 am10 °FCold.3 mph85%30.39 "Hg6 mi
11:50 pm
Sun, Jan 22
12 °FCold.5 mph85%30.39 "Hg6 mi
11:20 pm12 °FCold.5 mph92%30.42 "Hg6 mi
10:50 pm14 °FCold.3 mph85%30.42 "HgN/A
10:20 pm14 °FCold.5 mph85%30.42 "HgN/A
9:50 pm16 °FCold.3 mph86%30.42 "Hg6 mi
9:20 pm16 °FCold.3 mph86%30.42 "HgN/A
8:50 pm16 °FCold.5 mph86%30.42 "Hg6 mi
8:20 pm16 °FCold.3 mph86%30.42 "Hg6 mi
7:50 pm18 °FCold.5 mph86%30.42 "Hg6 mi
7:20 pm18 °FCold.5 mph93%30.39 "HgN/A
6:50 pm18 °FClear.2 mph86%30.39 "Hg10 mi
6:20 pm19 °FClear.2 mph79%30.39 "Hg10 mi
5:50 pm19 °FClear.2 mph86%30.39 "Hg10 mi
5:20 pm21 °FClear.2 mph80%30.39 "Hg10 mi
4:50 pm23 °FSunny.2 mph74%30.39 "Hg10 mi
4:20 pm25 °FSunny.2 mph74%30.39 "Hg10 mi
3:50 pm27 °FSunny.2 mph69%30.39 "Hg10 mi
3:20 pm25 °FSunny.2 mph74%30.42 "Hg10 mi
2:50 pm25 °FSunny.3 mph74%30.42 "Hg10 mi
2:20 pm25 °FSunny.2 mph74%30.42 "Hg10 mi
1:50 pm23 °FPassing clouds.3 mph74%30.42 "HgN/A
1:20 pm21 °FSunny.5 mph80%30.45 "Hg6 mi
Weather by CustomWeather, © 2017

See weather overviewHow to use our weather pages